Location: Bishop�s Knoyle
(51.0728°N, 2.1714°W)
Time: 13:31:44
(UTC+00:00)

NOSS 3-4 (C) - Pass Details

Date: 26 January 2021
Orbit: 878 x 1335 km, 63.4° (Epoch: 16 February)

Event Time Altitude Azimuth Distance (km) Brightness Sun altitude
Rises 22:41:37 0° 315° (NW) 3,790 7.2 -51.9°
Reaches altitude 10° 22:44:09 10° 312° (NW) 2,896 6.4 -52.1°
Enters shadow 22:44:28 12° 312° (NW) 2,785 6.3 -52.2°
